TimeEEST,TemperatureF,Dew PointF,Humidity,Sea Level PressureIn,VisibilityMPH,Wind Direction,Wind SpeedMPH,Gust SpeedMPH,PrecipitationIn,Events,Conditions,WindDirDegrees,DateUTC
12:20 AM,50.0,35.6,58,29.92,-9999.0,Variable,2.3,-,N/A,,Clear,0,2013-06-15 21:20:00
12:50 AM,46.4,37.4,71,29.92,-9999.0,Variable,1.2,-,N/A,,Clear,0,2013-06-15 21:50:00
1:20 AM,46.4,37.4,71,29.92,-9999.0,Variable,2.3,-,N/A,,Clear,0,2013-06-15 22:20:00
1:50 AM,44.6,39.2,81,29.92,-9999.0,NE,3.5,-,N/A,,Clear,50,2013-06-15 22:50:00
2:20 AM,44.6,39.2,81,29.92,-9999.0,Variable,2.3,-,N/A,,Clear,0,2013-06-15 23:20:00
2:50 AM,44.6,37.4,76,29.92,-9999.0,WSW,3.5,-,N/A,,Clear,240,2013-06-15 23:50:00
3:00 AM,44,37,68,,12,WSW,3.5,,,,,240,2013-06-16 00:00:00
3:20 AM,42.8,35.6,76,29.92,-9999.0,Variable,1.2,-,N/A,,Clear,0,2013-06-16 00:20:00
3:50 AM,42.8,35.6,76,29.92,-9999.0,Variable,2.3,-,N/A,,Clear,0,2013-06-16 00:50:00
4:20 AM,41.0,35.6,81,29.95,-9999.0,West,6.9,-,N/A,,Clear,260,2013-06-16 01:20:00
4:50 AM,39.2,35.6,87,29.95,-9999.0,Variable,2.3,-,N/A,,Clear,0,2013-06-16 01:50:00
5:20 AM,41.0,35.6,81,29.95,-9999.0,Variable,2.3,-,N/A,,Clear,0,2013-06-16 02:20:00
5:50 AM,44.6,37.4,76,29.95,-9999.0,Variable,2.3,-,N/A,,Clear,0,2013-06-16 02:50:00
6:20 AM,48.2,37.4,66,29.95,-9999.0,Variable,1.2,-,N/A,,Clear,0,2013-06-16 03:20:00
6:50 AM,53.6,39.2,58,29.95,-9999.0,Calm,Calm,-,N/A,,Clear,0,2013-06-16 03:50:00
7:20 AM,57.2,44.6,63,29.95,-9999.0,West,4.6,-,N/A,,Clear,270,2013-06-16 04:20:00
7:50 AM,60.8,48.2,63,29.95,-9999.0,WNW,6.9,-,N/A,,Clear,290,2013-06-16 04:50:00
8:20 AM,62.6,46.4,55,29.95,-9999.0,WNW,4.6,-,N/A,,Clear,300,2013-06-16 05:20:00
8:50 AM,64.4,44.6,49,29.95,-9999.0,WNW,4.6,-,N/A,,Clear,300,2013-06-16 05:50:00
9:00 AM,64,45,39,,12,WNW,4.6,,,,,290,2013-06-16 06:00:00
9:20 AM,68.0,48.2,49,29.95,-9999.0,Variable,3.5,-,N/A,,Clear,0,2013-06-16 06:20:00
9:50 AM,69.8,48.2,46,29.95,-9999.0,Variable,4.6,-,N/A,,Clear,0,2013-06-16 06:50:00
10:20 AM,69.8,48.2,46,29.92,-9999.0,NE,4.6,-,N/A,,Clear,40,2013-06-16 07:20:00
10:50 AM,71.6,50.0,46,29.92,6.2,Variable,5.8,-,N/A,,Partly Cloudy,0,2013-06-16 07:50:00
11:20 AM,73.4,48.2,41,29.92,6.2,North,5.8,-,N/A,,Partly Cloudy,10,2013-06-16 08:20:00
11:50 AM,75.2,48.2,38,29.92,6.2,NE,4.6,-,N/A,,Partly Cloudy,50,2013-06-16 08:50:00
12:20 PM,75.2,44.6,34,29.92,6.2,Variable,4.6,-,N/A,,Partly Cloudy,0,2013-06-16 09:20:00
12:50 PM,75.2,41.0,29,29.92,6.2,North,10.4,-,N/A,,Partly Cloudy,350,2013-06-16 09:50:00
1:20 PM,77.0,39.2,26,29.89,6.2,NNW,5.8,-,N/A,,Partly Cloudy,340,2013-06-16 10:20:00
1:50 PM,77.0,41.0,28,29.89,6.2,NW,9.2,-,N/A,,Partly Cloudy,310,2013-06-16 10:50:00
2:20 PM,78.8,41.0,26,29.89,6.2,NW,10.4,-,N/A,,Partly Cloudy,310,2013-06-16 11:20:00
2:50 PM,78.8,39.2,24,29.89,6.2,WNW,8.1,-,N/A,,Partly Cloudy,300,2013-06-16 11:50:00
3:00 PM,78,39,15,,12,WNW,8.1,,,,Scattered Clouds,300,2013-06-16 12:00:00
3:20 PM,78.8,37.4,23,29.89,6.2,West,12.7,-,N/A,,Scattered Clouds,270,2013-06-16 12:20:00
3:50 PM,78.8,37.4,23,29.89,6.2,West,10.4,-,N/A,,Scattered Clouds,280,2013-06-16 12:50:00
4:20 PM,78.8,37.4,23,29.89,6.2,West,17.3,-,N/A,,Scattered Clouds,270,2013-06-16 13:20:00
4:50 PM,78.8,37.4,23,29.89,6.2,West,15.0,-,N/A,,Scattered Clouds,280,2013-06-16 13:50:00
5:20 PM,77.0,35.6,22,29.89,6.2,West,10.4,-,N/A,,Scattered Clouds,280,2013-06-16 14:20:00
5:50 PM,77.0,35.6,22,29.89,6.2,West,10.4,-,N/A,,Scattered Clouds,280,2013-06-16 14:50:00
6:20 PM,75.2,33.8,22,29.89,6.2,West,10.4,-,N/A,,Scattered Clouds,280,2013-06-16 15:20:00
6:50 PM,71.6,37.4,29,29.89,6.2,West,10.4,-,N/A,,Scattered Clouds,260,2013-06-16 15:50:00
7:20 PM,69.8,37.4,31,29.89,6.2,WSW,9.2,-,N/A,,Scattered Clouds,250,2013-06-16 16:20:00
7:50 PM,68.0,42.8,40,29.89,6.2,West,8.1,-,N/A,,Scattered Clouds,280,2013-06-16 16:50:00
8:20 PM,66.2,46.4,49,29.92,6.2,NW,4.6,-,N/A,,Scattered Clouds,310,2013-06-16 17:20:00
8:50 PM,66.2,44.6,46,29.95,6.2,WNW,5.8,-,N/A,,Scattered Clouds,300,2013-06-16 17:50:00
9:00 PM,66,45,35,,12,NW,5.8,,,,Partly Cloudy,310,2013-06-16 18:00:00
9:20 PM,62.6,46.4,55,29.95,6.2,NNW,3.5,-,N/A,,Scattered Clouds,330,2013-06-16 18:20:00
9:50 PM,62.6,44.6,52,29.95,6.2,West,6.9,-,N/A,,Scattered Clouds,260,2013-06-16 18:50:00
10:20 PM,60.8,44.6,55,29.98,6.2,West,9.2,-,N/A,,Partly Cloudy,260,2013-06-16 19:20:00
10:50 PM,59.0,44.6,59,29.98,6.2,Variable,1.2,-,N/A,,Partly Cloudy,0,2013-06-16 19:50:00
11:20 PM,59.0,44.6,59,29.98,6.2,West,5.8,-,N/A,,Partly Cloudy,260,2013-06-16 20:20:00
11:50 PM,55.4,44.6,67,29.98,6.2,East,5.8,-,N/A,,Partly Cloudy,100,2013-06-16 20:50:00